Tiempo cada hora Muravlynka

Hoy, 30 Octubre, Viernes

Tiempo Temperatura Precipitaciones Viento Presión Humedad
00:00 +8°C° 0 mm 2 mps 746 mmHg 78%
01:00 +8°C° 0 mm 2 mps 746 mmHg 80%
02:00 +7°C° 0 mm 2 mps 746 mmHg 82%
03:00 +7°C° 0 mm 2 mps 745 mmHg 83%
04:00 +7°C° 0 mm 2 mps 745 mmHg 85%
05:00 +7°C° 0 mm 2 mps 745 mmHg 86%
06:00 +7°C° 0 mm 2 mps 745 mmHg 85%
07:00 +8°C° 0 mm 2 mps 745 mmHg 85%
08:00 +8°C° 0 mm 2 mps 745 mmHg 83%
09:00 +8°C° 0.3 mm 2 mps 745 mmHg 83%
10:00 +9°C° 0.3 mm 2 mps 745 mmHg 82%
11:00 +9°C° 0.3 mm 2 mps 745 mmHg 82%
12:00 +9°C° 0.1 mm 2 mps 745 mmHg 82%
13:00 +10°C° 0.1 mm 2 mps 745 mmHg 81%
14:00 +10°C° 0 mm 2 mps 745 mmHg 81%
15:00 +10°C° 0.1 mm 2 mps 745 mmHg 83%
16:00 +11°C° 0.1 mm 1 mps 745 mmHg 85%
17:00 +10°C° 0.1 mm 1 mps 745 mmHg 86%
18:00 +9°C° 0.3 mm 2 mps 745 mmHg 87%
19:00 +9°C° 0.3 mm 2 mps 745 mmHg 88%
20:00 +9°C° 0.3 mm 2 mps 745 mmHg 89%
21:00 +9°C° 0.2 mm 2 mps 745 mmHg 90%
22:00 +9°C° 0.2 mm 2 mps 745 mmHg 90%
23:00 +9°C° 0.2 mm 2 mps 745 mmHg 90%

Mañana, 31 Octubre, Sábado

Tiempo Temperatura Precipitaciones Viento Presión Humedad
00:00 +9°C° 0.2 mm 2 mps 745 mmHg 91%
01:00 +9°C° 0.2 mm 2 mps 745 mmHg 91%
02:00 +9°C° 0.2 mm 2 mps 745 mmHg 91%
03:00 +9°C° 0.1 mm 2 mps 745 mmHg 92%
04:00 +9°C° 0.1 mm 2 mps 745 mmHg 92%
05:00 +9°C° 0.1 mm 2 mps 745 mmHg 92%
06:00 +9°C° 0.1 mm 2 mps 745 mmHg 92%
07:00 +9°C° 0.1 mm 2 mps 745 mmHg 92%
08:00 +9°C° 0.1 mm 2 mps 744 mmHg 92%
09:00 +10°C° 0.1 mm 2 mps 744 mmHg 90%
10:00 +10°C° 0.1 mm 2 mps 744 mmHg 89%
11:00 +12°C° 0.1 mm 2 mps 744 mmHg 88%
12:00 +12°C° 0 mm 2 mps 744 mmHg 86%
13:00 +12°C° 0 mm 2 mps 744 mmHg 85%
14:00 +13°C° 0 mm 2 mps 744 mmHg 84%
15:00 +12°C° 0.3 mm 2 mps 743 mmHg 86%
16:00 +12°C° 0.3 mm 2 mps 743 mmHg 88%
17:00 +11°C° 0.3 mm 3 mps 743 mmHg 91%
18:00 +11°C° 1 mm 3 mps 743 mmHg 90%
19:00 +11°C° 1 mm 4 mps 742 mmHg 89%
20:00 +11°C° 1 mm 4 mps 742 mmHg 89%
21:00 +10°C° 1.4 mm 5 mps 742 mmHg 90%
22:00 +10°C° 1.4 mm 5 mps 741 mmHg 91%
23:00 +10°C° 1.4 mm 6 mps 741 mmHg 92%

Pasado mañana, 1 Noviembre, Domingo

Tiempo Temperatura Precipitaciones Viento Presión Humedad
00:00 +10°C° 2.2 mm 6 mps 741 mmHg 93%
01:00 +10°C° 2.2 mm 5 mps 741 mmHg 94%
02:00 +12°C° 2.2 mm 4 mps 740 mmHg 95%
03:00 +10°C° 0.7 mm 5 mps 740 mmHg 94%
04:00 +10°C° 0.7 mm 5 mps 741 mmHg 93%
05:00 +10°C° 0.7 mm 6 mps 741 mmHg 93%
06:00 +9°C° 0 mm 6 mps 741 mmHg 90%
07:00 +9°C° 0 mm 7 mps 742 mmHg 88%
08:00 +9°C° 0 mm 7 mps 742 mmHg 86%
09:00 +10°C° 0 mm 7 mps 743 mmHg 82%
10:00 +10°C° 0 mm 6 mps 743 mmHg 77%
11:00 +10°C° 0 mm 6 mps 744 mmHg 73%
12:00 +12°C° 0 mm 5 mps 744 mmHg 70%
13:00 +12°C° 0 mm 5 mps 744 mmHg 68%
14:00 +13°C° 0 mm 5 mps 744 mmHg 65%
15:00 +12°C° 0 mm 4 mps 744 mmHg 70%
16:00 +12°C° 0 mm 4 mps 745 mmHg 76%
17:00 +11°C° 0 mm 4 mps 745 mmHg 81%
18:00 +10°C° 0.1 mm 5 mps 744 mmHg 82%
19:00 +10°C° 0.1 mm 5 mps 744 mmHg 82%
20:00 +10°C° 0.1 mm 5 mps 744 mmHg 82%
21:00 +10°C° 0.8 mm 6 mps 744 mmHg 84%
22:00 +10°C° 0.8 mm 6 mps 744 mmHg 86%
23:00 +10°C° 0.8 mm 6 mps 744 mmHg 88%

2 Noviembre, Lunes

Tiempo Temperatura Precipitaciones Viento Presión Humedad
00:00 +9°C° 2.5 mm 6 mps 744 mmHg 88%
01:00 +9°C° 2.5 mm 5 mps 744 mmHg 89%
02:00 +10°C° 2.5 mm 4 mps 744 mmHg 89%
03:00 +9°C° 0 mm 3 mps 744 mmHg 91%
04:00 +8°C° 0 mm 3 mps 744 mmHg 93%
05:00 +8°C° 0 mm 3 mps 744 mmHg 95%
06:00 +8°C° 0 mm 2 mps 744 mmHg 93%
07:00 +8°C° 0 mm 2 mps 745 mmHg 92%
08:00 +9°C° 0 mm 2 mps 745 mmHg 90%
09:00 +9°C° 0.2 mm 2 mps 745 mmHg 88%
10:00 +10°C° 0.2 mm 2 mps 745 mmHg 86%
11:00 +10°C° 0.2 mm 2 mps 745 mmHg 84%
12:00 +10°C° 0.2 mm 2 mps 746 mmHg 83%
13:00 +12°C° 0.2 mm 2 mps 746 mmHg 82%
14:00 +12°C° 0.2 mm 2 mps 746 mmHg 81%
15:00 +12°C° 0.2 mm 2 mps 746 mmHg 83%
16:00 +10°C° 0.2 mm 2 mps 746 mmHg 84%
17:00 +10°C° 0.2 mm 2 mps 746 mmHg 86%
18:00 +10°C° 0.2 mm 2 mps 746 mmHg 86%
19:00 +10°C° 0.2 mm 2 mps 746 mmHg 87%
20:00 +9°C° 0.2 mm 2 mps 746 mmHg 87%
21:00 +10°C° 0.1 mm 1 mps 746 mmHg 88%
22:00 +10°C° 0.1 mm 1 mps 747 mmHg 88%
23:00 +10°C° 0.1 mm 1 mps 747 mmHg 89%

3 Noviembre, Martes

Tiempo Temperatura Precipitaciones Viento Presión Humedad
00:00 +10°C° 0.1 mm 1 mps 747 mmHg 89%
01:00 +10°C° 0.1 mm 1 mps 747 mmHg 90%
02:00 +9°C° 0.1 mm 1 mps 747 mmHg 90%
03:00 +9°C° 0.1 mm 1 mps 747 mmHg 91%
04:00 +10°C° 0.1 mm 1 mps 747 mmHg 92%
05:00 +9°C° 0.1 mm 2 mps 747 mmHg 93%
06:00 +9°C° 0.2 mm 2 mps 748 mmHg 93%
07:00 +9°C° 0.2 mm 2 mps 748 mmHg 93%
08:00 +9°C° 0.2 mm 2 mps 748 mmHg 94%
09:00 +9°C° 0.1 mm 2 mps 748 mmHg 91%
10:00 +9°C° 0.1 mm 3 mps 749 mmHg 89%
11:00 +10°C° 0.1 mm 3 mps 749 mmHg 87%
12:00 +10°C° 0.2 mm 3 mps 749 mmHg 87%
13:00 +10°C° 0.2 mm 3 mps 749 mmHg 86%
14:00 +10°C° 0.2 mm 3 mps 749 mmHg 86%
15:00 +10°C° 0.1 mm 3 mps 750 mmHg 87%
16:00 +9°C° 0.1 mm 3 mps 750 mmHg 88%
17:00 +9°C° 0.1 mm 2 mps 750 mmHg 89%
18:00 +9°C° 0.5 mm 2 mps 750 mmHg 90%
19:00 +9°C° 0.5 mm 2 mps 750 mmHg 92%
20:00 +9°C° 0.5 mm 2 mps 751 mmHg 93%
21:00 +9°C° 0.7 mm 2 mps 751 mmHg 94%
22:00 +9°C° 0.7 mm 2 mps 751 mmHg 95%
23:00 +10°C° 0.7 mm 1 mps 751 mmHg 96%

4 Noviembre, Miércoles

Tiempo Temperatura Precipitaciones Viento Presión Humedad
00:00 +10°C° 0.1 mm 1 mps 751 mmHg 96%
01:00 +10°C° 0.1 mm 1 mps 751 mmHg 95%
02:00 +9°C° 0.1 mm 1 mps 751 mmHg 95%
03:00 +9°C° 0 mm 1 mps 752 mmHg 95%
04:00 +8°C° 0 mm 0 mps 752 mmHg 95%
05:00 +8°C° 0 mm 0 mps 752 mmHg 95%
06:00 +8°C° 0 mm 0 mps 752 mmHg 94%
07:00 +8°C° 0 mm 0 mps 752 mmHg 92%
08:00 +9°C° 0 mm 0 mps 753 mmHg 91%
09:00 +10°C° 0 mm 1 mps 753 mmHg 86%
10:00 +11°C° 0 mm 1 mps 753 mmHg 82%
11:00 +12°C° 0 mm 1 mps 753 mmHg 77%
12:00 +12°C° 0 mm 1 mps 753 mmHg 75%
13:00 +12°C° 0 mm 1 mps 753 mmHg 72%
14:00 +13°C° 0 mm 1 mps 753 mmHg 70%
15:00 +12°C° 0 mm 1 mps 753 mmHg 73%
16:00 +11°C° 0 mm 1 mps 753 mmHg 76%
17:00 +10°C° 0 mm 2 mps 753 mmHg 80%
18:00 +9°C° 0 mm 2 mps 754 mmHg 82%
19:00 +9°C° 0 mm 2 mps 754 mmHg 83%
20:00 +8°C° 0 mm 2 mps 754 mmHg 85%
21:00 +8°C° 0 mm 2 mps 754 mmHg 86%
22:00 +8°C° 0 mm 2 mps 754 mmHg 86%
23:00 +8°C° 0 mm 2 mps 755 mmHg 87%
Mostrar más

Necesitamos Su Consentimiento

Meteoprog y nuestros Proveedores de Servicios pueden almacenar y acceder a sus datos personales como cookies, identificadores de dispositivo u otras tecnologías similares de su dispositivo y procesar dichos datos para personalizar contenido y anuncios, además de ofrecer funciones de redes sociales y analizar el tráfico.

  • Almacenar y/o acceder a información en su dispositivo

    Se puede almacenar o acceder a cookies, identificadores de dispositivo u otra información de su dispositivo para los fines anteriormente indicados.

  • Anuncios y contenido personalizados, medición de anuncios y contenido, percepciones del público, y desarrollo de productos

    Los anuncios y el contenido pueden personalizarse en base a su perfil. Se pueden añadir más datos para personalizar mejor los anuncios y contenidos. Se puede medir el rendimiento de los anuncios y contenidos. Se puede obtener la percepción sobre el público que ha visto los anuncios y contenidos. Dichos datos pueden usarse para desarrollar o mejorar la experiencia del usuario, sistemas y software.

Al hacer clic en ‘Estoy De Acuerdo’ usted permitirá el uso de las cookies, identificadores de dispositivo, balizas web u otras tecnologías similares indicadas. Su configuración puede cambiarse desde el navegador de su dispositivo.

Para ciertos fines, los intereses legítimos pueden ser considerados por encima del consentimiento. Puede leer más sobre ello en nuestra Política de Privacidad y Cookies.